Weather in Morecambe

United Kingdom     54°04′21″N   2°50′45″W
temp.,
°C
wind,
m/s
gust,
m/s
humid.,
%
clouds,
%
prec.,
mm/h
press.,
hPa
HPBL,
m
14 april, wed
wed1401:00+3e228995 0.0 103332
04:00+4e0086100 0.0 103332
07:00+4e118699 0.0 103444
10:00+6e1179100 0.0 1034278
13:00+9wnw226811 0.1 1034810
16:00+8wnw227273 0.5 1034495
19:00+8ene117830 0.8 103328
22:00+4e378042 0.0 1035157
15 april, thu
thu1501:00+3ese337925 0.0 103575
04:00+1e22835 0.0 103538
07:00+1e22814 0.0 103553
10:00+6e1260100 0.0 1035503
13:00+9e13474 0.0 10341162
16:00+10ese134855 0.0 10331485
19:00+9e116325 0.0 103224
22:00+4e46785 0.0 1033116
16 april, fri
fri1601:00+2ese33805 0.0 103361
04:00+1ese22825 0.0 103337
07:00+1ese22805 0.0 103353
10:00+7s11645 0.0 1033500
13:00+9wnw115834 0.0 10321175
16:00+9wnw326384 0.0 1031539
19:00+8nnw117089 0.0 103089
22:00+7ene227186 0.0 103020
17 april, sat
sat1701:00+3ese32775 0.0 103041
04:00+2ese22795 0.0 103050
07:00+2ese227790 0.0 103064
10:00+7sse3562100 0.0 1029523
13:00+10s3555100 0.0 10281027
16:00+10wsw3454100 0.0 10261193
19:00+8nw1170100 0.0 102622
22:00+6sse0067100 0.0 102610
18 april, sun
sun1801:00+6se1168100 0.0 102613
04:00+5sse2276100 0.0 102552
07:00+5se3381100 0.0 102487
10:00+8s357199 0.0 1024563
13:00+10sw456197 0.0 1024771
16:00+9wsw1263100 0.0 1023190
19:00+9sse1171100 0.0 102315
22:00+8se1168100 0.0 102210